Wind_Speed
71 65 55 56 56 55 56 53 55 42 44 33 27 46 47 39 34 31 28 48 44 45 29 30 25 28 23 26 23 21 20 16 13 15 16 16 17 18 17 15 14 14 11 11
78 73 66 57 60 59 56 53 53 50 45 36 34 41 52 44 42 29 36 36 51 33 27 31 28 30 23 22 24 23 21 21 20 20 18 15 18 19 19 19 17 18 16 14
77 73 66 52 67 65 61 57 54 55 43 36 38 35 53 59 48 37 31 37 32 34 32 32 34 35 31 28 26 28 29 24 26 25 22 21 20 22 20 23 25 24 21 17
76 72 65 71 61 65 61 56 54 54 36 37 39 37 40 52 52 45 36 44 43 38 36 38 41 38 39 41 38 31 28 28 29 30 28 25 24 23 23 24 22 20 20 18
73 67 65 67 65 57 67 60 48 53 53 44 37 34 36 50 58 52 47 43 40 41 42 38 45 39 42 44 38 32 30 31 28 30 32 30 25 25 26 28 28 24 22 21
54 67 62 68 62 59 53 64 56 53 53 50 40 36 41 41 55 62 58 55 46 49 42 41 41 48 46 44 43 42 34 29 31 31 35 34 31 28 32 33 34 30 27 26
56 58 68 67 66 57 52 55 59 57 53 49 44 39 38 37 46 56 62 62 59 56 54 49 48 57 43 41 43 42 37 36 38 36 37 36 37 34 36 39 39 37 37 32
64 49 55 68 65 55 56 52 56 55 56 50 45 42 41 37 37 52 60 63 62 57 51 49 51 55 53 53 49 40 43 43 42 38 41 44 43 40 38 42 44 44 48 47
56 45 55 62 42 41 53 55 54 59 58 53 51 47 47 46 42 39 47 58 66 67 64 58 55 58 59 63 55 51 52 46 46 43 41 44 45 45 41 41 42 45 52 37
52 38 56 69 70 40 57 60 56 59 62 60 56 55 54 52 44 43 45 47 51 53 54 60 66 71 68 63 60 53 52 49 43 38 41 40 43 48 45 44 42 46 52 31
53 38 59 65 58 67 60 63 65 65 59 59 54 55 54 52 52 49 47 50 47 49 51 56 62 63 65 64 66 68 61 54 55 57 52 51 49 52 49 50 51 44 41 39
53 47 54 62 65 59 56 59 67 69 65 60 54 52 50 56 49 47 45 42 43 48 52 54 52 64 61 59 57 64 65 64 56 56 51 54 56 63 62 59 39 27 40 43
55 45 49 46 48 50 55 59 57 55 55 57 53 54 52 51 48 48 45 45 49 51 50 47 57 59 54 53 51 53 57 61 65 69 62 59 59 62 46 25 30 38 44 49
35 37 53 48 46 42 55 54 55 56 62 58 52 50 47 44 44 43 43 45 45 42 42 47 57 50 27 43 43 40 54 50 50 40 38 47 55 57 48 27 36 42 46 48
35 30 45 44 50 28 34 58 57 53 51 56 51 49 53 50 48 48 48 44 36 33 36 36 37 30 21 38 36 36 31 26 43 50 46 46 57 62 52 30 40 49 46 52
45 37 42 41 43 42 44 32 40 43 45 55 52 37 40 43 35 34 33 34 29 24 25 22 29 14 12 19 30 35 32 29 35 43 46 50 60 59 47 47 44 46 50 47
32 30 34 33 40 46 50 45 33 43 37 34 47 42 37 37 36 36 32 36 31 29 26 27 30 22 20 20 25 30 32 33 37 42 45 47 49 45 43 46 47 53 50 44
40 46 46 43 36 33 40 34 29 25 29 31 39 34 36 37 34 32 32 33 36 33 33 32 29 26 25 25 28 31 34 35 39 42 44 40 39 46 53 46 51 52 47 51
20 21 18 17 22 28 22 18 18 19 27 38 33 34 30 27 28 28 29 33 31 34 35 34 33 32 32 32 31 31 36 39 39 40 43 46 43 43 44 46 52 52 55 36
14 18 13 12 17 12 11 15 15 20 17 23 26 28 28 22 24 27 24 25 30 30 35 31 35 39 35 33 33 36 39 40 43 44 48 50 48 47 42 46 43 35 29 32
5 6 11 13 19 17 10 10 12 12 9 11 22 28 22 24 26 24 33 30 28 31 35 37 37 36 38 41 45 48 40 45 48 52 54 55 54 43 42 36 34 33 31 31
3 5 5 6 9 5 5 8 9 10 7 9 10 14 18 22 23 23 28 40 43 43 40 42 45 42 44 43 47 47 47 43 47 47 56 58 46 32 28 31 34 34 34 34
6 3 2 4 4 6 11 9 9 10 11 12 13 14 15 19 21 23 24 24 26 27 27 28 27 25 36 43 35 34 28 28 28 28 26 25 30 30 32 32 36 39 39 39
7 3 3 6 8 12 14 13 12 12 13 15 16 14 16 17 16 15 16 19 20 19 20 21 20 19 21 22 22 22 23 24 26 27 28 30 35 36 35 36 39 43 42 39
9 9 8 4 3 7 12 13 15 17 18 20 22 22 20 20 17 19 20 22 24 26 23 23 24 25 26 28 29 28 29 29 28 31 33 34 33 34 36 36 36 36 34 36
8 10 11 10 10 10 12 14 16 17 17 19 20 21 24 25 25 25 26 26 30 32 34 29 28 29 30 32 33 34 33 34 32 32 33 35 35 35 35 35 35 35 37 38
10 14 16 17 18 20 20 21 20 21 21 22 25 26 25 25 26 28 28 29 30 32 33 35 35 35 35 35 36 34 35 35 36 35 35 37 38 37 37 39 38 39 40 40
Wind_Direction
233 226 218 230 232 234 237 243 246 252 251 246 224 213 218 222 229 231 248 232 234 232 228 228 241 250 241 242 237 257 273 270 243 229 219 211 215 220 225 220 220 231 254 275
232 226 217 218 226 232 236 238 244 247 244 241 236 218 214 220 230 226 250 245 247 246 249 231 231 238 234 240 239 253 263 268 264 250 238 224 228 230 229 234 244 255 269 283
226 226 224 218 221 225 231 236 240 242 241 233 238 225 220 220 229 227 239 258 259 266 248 236 235 237 236 241 238 255 263 262 269 265 254 240 241 247 239 240 244 257 264 273
225 225 227 225 212 218 225 229 234 239 237 233 232 235 222 221 222 230 230 242 249 243 238 235 233 234 243 245 243 252 258 267 255 257 259 251 242 245 247 246 255 250 255 268
219 219 227 229 226 214 215 220 221 235 242 239 226 227 227 222 223 225 221 236 228 239 246 240 235 229 237 242 254 260 260 256 252 246 253 259 253 246 248 249 255 252 255 268
216 214 217 226 233 232 220 221 218 227 235 243 242 226 232 235 223 229 234 230 226 234 249 244 258 241 238 243 247 253 250 250 257 240 241 254 259 254 246 249 252 250 256 264
202 204 212 220 222 232 230 220 219 223 230 235 238 235 233 238 231 230 235 239 238 244 249 251 250 246 246 255 247 250 248 250 250 244 237 244 249 251 252 247 249 253 258 260
202 192 197 212 215 223 230 218 219 219 223 227 232 232 235 238 246 236 236 240 239 241 246 249 248 251 244 253 254 255 257 246 243 246 236 240 247 249 258 253 248 255 259 257
204 192 189 197 198 213 215 218 220 220 221 223 225 230 235 245 248 241 242 244 243 245 244 239 238 246 255 259 255 250 247 254 249 243 240 239 244 251 251 246 247 254 260 259
193 179 194 202 213 199 207 214 217 223 225 229 230 238 244 246 243 245 244 240 239 241 246 249 252 248 250 255 257 257 251 245 240 248 250 245 245 247 247 244 249 256 267 281
193 185 196 205 216 219 213 215 221 227 228 235 239 239 239 242 246 249 248 245 245 238 244 245 247 249 251 251 252 254 249 241 242 246 251 254 250 248 246 245 242 244 260 274
188 187 193 208 217 220 223 218 221 226 230 232 237 241 244 247 248 244 250 246 244 250 254 252 252 247 245 245 242 241 242 243 235 237 241 251 244 242 238 237 232 248 260 273
201 208 199 198 215 218 220 219 222 231 230 233 240 241 242 248 246 250 250 253 257 263 265 270 276 267 230 228 235 237 242 254 257 244 241 240 242 248 225 246 258 257 274 281
190 206 205 206 212 214 215 217 218 226 227 231 237 241 234 252 253 251 253 260 265 270 278 271 279 273 195 208 215 227 245 232 243 254 257 234 248 258 261 242 255 263 270 280
199 204 208 210 207 224 224 216 221 216 224 233 240 237 244 248 249 256 263 267 271 272 280 290 284 267 231 208 224 244 248 228 246 253 250 242 248 250 262 261 259 269 270 277
208 216 217 216 221 233 235 239 234 246 241 238 234 235 244 250 248 247 254 264 270 274 264 270 259 300 287 240 237 251 252 251 248 241 242 245 250 256 258 263 265 265 274 280
209 217 230 236 238 245 256 249 250 243 243 239 233 237 242 243 250 247 258 258 260 253 253 253 252 264 261 257 254 251 252 248 248 250 254 255 256 255 253 263 262 272 279 281
227 228 226 230 235 237 241 256 225 230 244 230 224 234 244 248 251 255 255 253 255 245 245 248 249 245 245 245 246 245 249 251 252 256 258 262 262 256 255 260 274 279 276 280
149 141 157 169 193 221 219 212 223 235 240 221 227 240 248 249 247 245 246 254 241 235 241 243 242 242 243 241 244 247 244 243 241 246 256 262 272 273 279 266 267 276 274 273
147 158 166 188 186 233 200 206 224 230 237 230 234 233 232 227 224 225 243 242 221 230 241 248 251 249 240 241 243 251 257 250 256 260 259 263 270 271 252 263 269 265 268 275
103 124 142 144 161 188 204 214 221 227 228 246 232 239 246 244 246 238 235 235 228 233 244 248 246 248 252 249 245 260 256 250 258 263 262 263 267 262 269 258 242 253 265 271
84 140 158 163 171 200 227 246 240 238 243 234 225 241 245 245 245 247 244 239 239 244 250 251 250 251 251 253 257 260 267 258 261 259 262 254 261 236 239 254 263 270 271 273
183 205 220 241 245 248 253 253 252 259 250 247 244 242 249 251 252 252 249 253 250 255 259 258 258 257 257 256 255 255 250 247 243 234 234 246 253 254 258 262 259 263 274 277
68 112 237 245 251 252 245 253 250 253 249 250 243 236 241 242 245 252 259 264 262 260 262 267 266 263 264 267 264 262 258 256 256 256 254 253 256 259 259 256 257 260 268 269
17 7 349 341 264 245 248 253 258 256 252 252 251 250 244 250 259 263 269 268 269 268 263 264 264 263 262 263 263 260 262 262 258 258 260 263 266 266 264 266 267 267 266 266
316 310 304 303 304 295 287 280 273 273 274 271 266 260 258 260 261 261 263 271 274 274 274 269 263 260 261 261 260 262 261 259 255 252 251 252 252 253 256 259 261 260 261 264
298 293 290 288 283 280 278 277 277 280 276 272 273 273 271 270 268 269 267 264 263 264 263 266 269 269 267 264 263 263 264 264 264 261 260 262 264 263 260 261 262 264 265 266
Height
5740 5750 5758 5767 5774 5779 5782 5788 5787 5802 5801 5814 5824 5826 5830 5834 5836 5841 5846 5847 5845 5851 5856 5863 5866 5871 5875 5877 5878 5879 5880 5883 5884 5884 5884 5884 5885 5886 5887 5889 5890 5891 5890 5889
5722 5734 5740 5749 5759 5765 5770 5777 5781 5787 5795 5803 5810 5816 5820 5826 5827 5829 5835 5840 5838 5846 5849 5854 5858 5865 5868 5871 5873 5874 5876 5879 5880 5880 5880 5881 5881 5882 5882 5883 5883 5883 5883 5881
5707 5720 5727 5734 5738 5752 5759 5764 5771 5773 5786 5796 5799 5806 5810 5816 5818 5821 5827 5829 5831 5838 5842 5846 5851 5857 5861 5864 5866 5868 5870 5873 5873 5875 5875 5876 5877 5876 5878 5878 5879 5878 5877 5875
5696 5707 5707 5723 5733 5743 5750 5756 5761 5766 5775 5784 5791 5794 5801 5806 5810 5815 5819 5821 5826 5829 5834 5838 5844 5848 5852 5854 5857 5861 5863 5865 5866 5867 5869 5870 5870 5871 5871 5871 5871 5871 5870 5869
5684 5694 5704 5712 5719 5732 5737 5745 5754 5758 5764 5770 5781 5784 5788 5793 5800 5804 5808 5814 5819 5821 5825 5829 5833 5838 5840 5843 5848 5850 5853 5856 5858 5859 5862 5863 5864 5865 5865 5865 5865 5865 5863 5861
5669 5681 5691 5706 5712 5718 5729 5737 5746 5752 5755 5761 5767 5774 5779 5783 5791 5795 5799 5806 5810 5813 5816 5821 5825 5828 5829 5834 5837 5839 5843 5848 5850 5851 5853 5854 5857 5857 5857 5857 5858 5857 5855 5853
5656 5660 5682 5697 5706 5712 5719 5731 5738 5745 5749 5754 5759 5765 5770 5776 5780 5786 5791 5794 5800 5804 5806 5811 5814 5815 5818 5823 5826 5830 5833 5837 5839 5842 5845 5846 5845 5847 5848 5848 5848 5845 5844 5843
5648 5652 5670 5679 5688 5701 5709 5722 5730 5737 5741 5746 5751 5756 5762 5768 5772 5778 5783 5786 5790 5793 5798 5801 5804 5805 5807 5808 5817 5821 5822 5824 5826 5831 5833 5835 5836 5837 5838 5837 5835 5835 5830 5829
5638 5644 5649 5665 5675 5689 5702 5714 5722 5727 5732 5737 5741 5746 5753 5758 5763 5769 5773 5777 5780 5783 5787 5791 5791 5791 5793 5797 5803 5806 5810 5813 5816 5818 5820 5823 5826 5827 5826 5825 5824 5822 5815 5812
5631 5636 5639 5655 5665 5674 5693 5702 5710 5716 5722 5726 5733 5738 5742 5746 5752 5757 5760 5763 5764 5767 5770 5771 5774 5777 5779 5783 5787 5789 5793 5800 5804 5806 5809 5811 5813 5814 5813 5812 5812 5811 5804 5793
5624 5632 5637 5648 5656 5669 5677 5690 5698 5705 5713 5720 5725 5728 5731 5736 5739 5744 5747 5749 5752 5755 5755 5754 5756 5759 5760 5765 5771 5771 5776 5782 5787 5791 5794 5797 5799 5799 5799 5798 5795 5794 5796 5795
5614 5624 5632 5641 5649 5659 5671 5679 5687 5694 5703 5709 5715 5719 5722 5725 5726 5731 5735 5738 5740 5737 5736 5735 5737 5737 5742 5743 5750 5756 5758 5762 5767 5772 5777 5781 5778 5780 5773 5773 5758 5776 5785 5786
5613 5620 5629 5637 5644 5655 5663 5671 5681 5688 5694 5701 5705 5709 5712 5715 5717 5719 5723 5727 5726 5725 5721 5719 5710 5699 5679 5719 5729 5737 5739 5745 5750 5748 5751 5756 5754 5747 5719 5751 5764 5769 5771 5775
5608 5614 5625 5631 5639 5649 5656 5665 5672 5680 5686 5691 5695 5698 5701 5704 5706 5709 5712 5713 5713 5713 5709 5706 5698 5669 5655 5699 5706 5712 5718 5727 5732 5703 5714 5735 5741 5748 5752 5753 5759 5764 5764 5766
5602 5611 5620 5627 5633 5638 5649 5659 5663 5666 5673 5677 5682 5686 5692 5695 5697 5700 5700 5700 5701 5703 5696 5693 5689 5675 5673 5687 5695 5703 5708 5710 5721 5723 5726 5732 5740 5744 5747 5744 5748 5752 5753 5754
5606 5612 5618 5624 5633 5639 5646 5649 5657 5661 5666 5670 5674 5679 5683 5685 5688 5690 5691 5689 5691 5692 5691 5688 5683 5650 5679 5687 5697 5703 5709 5713 5716 5720 5723 5729 5734 5735 5736 5738 5740 5743 5745 5745
5605 5613 5617 5626 5632 5638 5643 5645 5647 5651 5653 5657 5665 5672 5675 5678 5679 5681 5680 5680 5682 5685 5684 5683 5680 5680 5684 5687 5693 5697 5702 5705 5710 5714 5718 5723 5728 5729 5731 5733 5732 5733 5736 5735
5604 5610 5616 5621 5627 5631 5637 5638 5641 5644 5647 5650 5658 5663 5667 5669 5669 5670 5672 5671 5672 5675 5678 5677 5678 5679 5682 5685 5689 5693 5696 5699 5703 5705 5707 5712 5714 5717 5719 5720 5720 5721 5722 5721
5605 5608 5613 5616 5622 5629 5630 5631 5634 5636 5639 5645 5649 5655 5658 5658 5659 5661 5663 5664 5664 5667 5670 5672 5672 5674 5677 5680 5683 5685 5689 5691 5693 5697 5700 5704 5705 5706 5707 5707 5709 5710 5707 5705
5606 5609 5614 5618 5621 5622 5626 5630 5631 5635 5637 5640 5642 5645 5647 5649 5651 5653 5656 5657 5659 5662 5663 5664 5666 5667 5670 5675 5677 5679 5679 5681 5685 5687 5690 5692 5694 5694 5697 5699 5697 5697 5696 5695
5606 5609 5613 5615 5618 5623 5624 5627 5627 5630 5630 5631 5635 5637 5638 5640 5643 5646 5648 5650 5651 5654 5655 5656 5658 5660 5664 5666 5668 5668 5668 5670 5673 5674 5677 5679 5680 5681 5683 5682 5682 5682 5685 5684
5609 5611 5612 5615 5617 5620 5621 5623 5624 5625 5625 5627 5629 5631 5633 5634 5636 5637 5638 5641 5643 5646 5645 5646 5648 5650 5650 5652 5653 5654 5656 5658 5660 5661 5664 5665 5667 5668 5670 5672 5674 5672 5672 5671
5610 5612 5613 5614 5615 5617 5619 5621 5622 5623 5624 5624 5625 5626 5628 5629 5630 5631 5633 5634 5635 5636 5637 5637 5639 5639 5641 5644 5642 5644 5645 5646 5648 5649 5652 5654 5657 5657 5660 5661 5661 5660 5660 5661
5612 5612 5613 5613 5614 5615 5617 5618 5620 5621 5621 5621 5621 5621 5620 5621 5623 5626 5628 5629 5629 5629 5630 5631 5634 5635 5635 5635 5637 5637 5637 5638 5640 5642 5643 5645 5646 5647 5649 5650 5649 5649 5649 5650
5615 5614 5613 5615 5616 5617 5617 5617 5616 5616 5616 5616 5618 5618 5616 5615 5618 5617 5619 5620 5622 5621 5622 5624 5623 5623 5624 5624 5624 5626 5626 5627 5631 5631 5632 5634 5635 5636 5635 5635 5635 5635 5636 5637
5616 5615 5614 5613 5613 5613 5614 5614 5613 5612 5611 5611 5611 5612 5613 5612 5611 5612 5614 5613 5612 5613 5615 5615 5615 5616 5616 5616 5615 5615 5616 5617 5618 5619 5619 5619 5620 5620 5620 5620 5620 5621 5622 5623
5613 5611 5610 5610 5610 5609 5609 5610 5610 5609 5608 5606 5603 5603 5604 5604 5603 5603 5604 5604 5604 5604 5605 5605 5604 5603 5604 5604 5604 5604 5604 5605 5605 5607 5606 5605 5606 5606 5607 5607 5607 5608 5607 5607